User: anonymous   Login
Location: Unspecified
(0.0000°N, 0.0000°E)
Time: 13:11:44
(UTC+00:00)
Language:

Uribyol 2 - Orbit

View from above orbital plane
View from above orbital plane
View from above satellite
View from above satellite

Ground track
Ground track

The orbit data is extracted from the following two-line orbital elements,

1 22828U 93061F   21015.78381131  .00000007  00000-0  20285-4 0  9990
2 22828  98.9156  27.9218 0010874  74.4172 285.8209 14.30764538392825
Epoch (UTC): 15 January 2021 18:48:41
Eccentricity: 0.0010874
inclination: 98.9156°
perigee height: 781 km
apogee height: 797 km
right ascension of ascending node: 27.9218°
argument of perigee: 74.4172°
revolutions per day: 14.30764538
mean anomaly at epoch: 285.8209°
orbit number at epoch: 39282

The dashed part of the orbit path shows where the satellite is in the earth's shadow,  

DLR